Weather History for Bainbridge, GA

Change the Weather History Date:

Monday, September 24, 2012

  Actual Average (KMAI) Record (KMAI)
Temperature  
Mean Temperature 70 °F 76 °F  
Max Temperature 82 °F 86 °F 96 °F (2010)
Min Temperature 59 °F 65 °F 55 °F (1999)
Degree Days  
Heating Degree Days 0    
Month to date heating degree days  
Since 1 July heating degree days  
Cooling Degree Days 6    
Month to date cooling degree days  
Year to date cooling degree days  
Growing Degree Days 20 (Base 50)    
Moisture  
Dew Point 52 °F    
Average Humidity 57    
Maximum Humidity 94    
Minimum Humidity 26    
Precipitation  
Precipitation 0.00 in 0.13 in 1.34 in (2002)
Month to date precipitation 3.07  
Year to date precipitation 41.40  
Sea Level Pressure  
Sea Level Pressure 30.13 in    
Wind  
Wind Speed 3 mph (NNE)    
Max Wind Speed 9 mph    
Max Gust Speed -    
Visibility 10 miles    
Events      
T = Trace of Precipitation, MM = Missing Value Source: NWS Daily Summary

Daily Weather History Graph

Daily Weather History Graph

Search for Another Location

Airport:

Trip Planner

Search our weather history database for the weather conditions in past years. The results will help you decide how hot, cold, wet, or windy it might be!

Date:

Astronomy

Sep. 24, 2012 Rise Set
Actual Time 7:28 AM EDT 7:31 PM EDT
Civil Twilight 7:04 AM EDT 7:56 PM EDT
Nautical Twilight 6:36 AM EDT 8:24 PM EDT
Astronomical Twilight 6:07 AM EDT 8:52 PM EDT
Moon 3:59 PM EDT (9/24) 2:03 AM EDT (9/24)
Length of Visible Light 12h 51m
Length of Day
12h 03m
Waxing Gibbous, 70% of the Moon is Illuminated
Sep 24
Waxing Gibbous
Sep 29
Full
Oct 8
Last Quarter
Oct 15
New
Oct 21
First Quarter

Hourly Weather History & Observations

Time (EDT) Temp. Dew Point Humidity Pressure Visibility Wind Dir Wind Speed Gust Speed Precip Events Conditions
12:15 AM 64.4 °F 60.8 °F 88% 30.13 in 10.0 mi Calm Calm - N/A   Clear
12:35 AM 64.4 °F 60.8 °F 88% 30.13 in 10.0 mi Calm Calm - N/A   Clear
1:15 AM 62.6 °F 60.8 °F 94% 30.13 in 10.0 mi Calm Calm - N/A   Clear
1:35 AM 62.6 °F 60.8 °F 94% 30.13 in 10.0 mi Calm Calm - N/A   Clear
1:55 AM 62.6 °F 60.8 °F 94% 30.12 in 10.0 mi Calm Calm - N/A   Clear
2:15 AM 62.6 °F 60.8 °F 94% 30.12 in 10.0 mi Calm Calm - N/A   Clear
2:35 AM 64.4 °F 59.0 °F 83% 30.12 in 10.0 mi NNW 3.5 mph - N/A   Clear
2:55 AM 66.2 °F 59.0 °F 78% 30.12 in 10.0 mi NNW 4.6 mph - N/A   Clear
3:15 AM 64.4 °F 57.2 °F 77% 30.11 in 10.0 mi North 4.6 mph - N/A   Clear
3:35 AM 64.4 °F 57.2 °F 77% 30.11 in 10.0 mi North 5.8 mph - N/A   Clear
4:15 AM 64.4 °F 57.2 °F 77% 30.11 in 10.0 mi North 4.6 mph - N/A   Clear
4:35 AM 64.4 °F 55.4 °F 73% 30.11 in 10.0 mi North 3.5 mph - N/A   Clear
4:55 AM 64.4 °F 55.4 °F 73% 30.11 in 10.0 mi NNE 4.6 mph - N/A   Clear
5:15 AM 64.4 °F 55.4 °F 73% 30.11 in 10.0 mi NNE 4.6 mph - N/A   Clear
5:35 AM 64.4 °F 55.4 °F 73% 30.12 in 10.0 mi North 3.5 mph - N/A   Clear
5:55 AM 64.4 °F 55.4 °F 73% 30.12 in 10.0 mi North 5.8 mph - N/A   Clear
6:15 AM 62.6 °F 55.4 °F 77% 30.12 in 10.0 mi North 5.8 mph - N/A   Clear
6:35 AM 62.6 °F 53.6 °F 72% 30.12 in 10.0 mi NNE 6.9 mph - N/A   Clear
6:55 AM 62.6 °F 53.6 °F 72% 30.13 in 10.0 mi NNE 5.8 mph - N/A   Clear
7:15 AM 62.6 °F 53.6 °F 72% 30.14 in 10.0 mi NNE 4.6 mph - N/A   Clear
7:35 AM 62.6 °F 51.8 °F 68% 30.15 in 10.0 mi NNE 6.9 mph - N/A   Clear
7:55 AM 62.6 °F 51.8 °F 68% 30.15 in 10.0 mi NE 4.6 mph - N/A   Clear
8:15 AM 64.4 °F 53.6 °F 68% 30.16 in 10.0 mi NE 3.5 mph - N/A   Clear
8:35 AM 64.4 °F 53.6 °F 68% 30.17 in 10.0 mi NE 4.6 mph - N/A   Clear
8:55 AM 66.2 °F 53.6 °F 64% 30.17 in 10.0 mi ENE 3.5 mph - N/A   Clear
9:15 AM 68.0 °F 53.6 °F 60% 30.17 in 10.0 mi NNE 4.6 mph - N/A   Clear
9:35 AM 69.8 °F 53.6 °F 56% 30.17 in 10.0 mi NE 3.5 mph - N/A   Clear
9:55 AM 71.6 °F 53.6 °F 53% 30.17 in 10.0 mi ENE 4.6 mph - N/A   Clear
10:15 AM 71.6 °F 51.8 °F 50% 30.18 in 10.0 mi ENE 5.8 mph - N/A   Clear
10:55 AM 73.4 °F 50.0 °F 44% 30.18 in 10.0 mi NE 5.8 mph - N/A   Clear
11:15 AM 73.4 °F 50.0 °F 44% 30.18 in 10.0 mi NNE 5.8 mph - N/A   Clear
11:35 AM 77.0 °F 50.0 °F 39% 30.18 in 10.0 mi Calm Calm - N/A   Clear
11:55 AM 77.0 °F 46.4 °F 34% 30.18 in 10.0 mi East 4.6 mph - N/A   Clear
12:15 PM 78.8 °F 48.2 °F 34% 30.18 in 10.0 mi Calm Calm - N/A   Clear
12:35 PM 78.8 °F 50.0 °F 36% 30.17 in 10.0 mi NE 5.8 mph - N/A   Clear
1:15 PM 80.6 °F 46.4 °F 30% 30.15 in 10.0 mi North 5.8 mph - N/A   Clear
1:35 PM 80.6 °F 48.2 °F 32% 30.15 in 10.0 mi NW 6.9 mph - N/A   Clear
1:55 PM 80.6 °F 46.4 °F 30% 30.14 in 10.0 mi ENE 3.5 mph - N/A   Clear
2:15 PM 80.6 °F 48.2 °F 32% 30.12 in 10.0 mi Calm Calm - N/A   Clear
2:35 PM 82.4 °F 50.0 °F 32% 30.12 in 10.0 mi North 6.9 mph - N/A   Clear
2:55 PM 82.4 °F 46.4 °F 28% 30.11 in 10.0 mi NNW 8.1 mph - N/A   Clear
3:15 PM 82.4 °F 46.4 °F 28% 30.11 in 10.0 mi NW 5.8 mph - N/A   Clear
3:35 PM 82.4 °F 46.4 °F 28% 30.10 in 10.0 mi NNW 3.5 mph - N/A   Clear
3:55 PM 82.4 °F 44.6 °F 26% 30.09 in 10.0 mi North 4.6 mph - N/A   Clear
4:15 PM 82.4 °F 44.6 °F 26% 30.09 in 10.0 mi NNW 8.1 mph - N/A   Clear
4:35 PM 82.4 °F 44.6 °F 26% 30.09 in 10.0 mi WNW 6.9 mph - N/A   Clear
4:55 PM 82.4 °F 46.4 °F 28% 30.09 in 10.0 mi North 8.1 mph - N/A   Clear
5:15 PM 82.4 °F 44.6 °F 26% 30.08 in 10.0 mi Calm Calm - N/A   Clear
5:35 PM 82.4 °F 46.4 °F 28% 30.08 in 10.0 mi NNE 6.9 mph - N/A   Clear
5:55 PM 82.4 °F 44.6 °F 26% 30.08 in 10.0 mi NE 9.2 mph - N/A   Clear
6:15 PM 80.6 °F 42.8 °F 26% 30.08 in 10.0 mi NE 5.8 mph - N/A   Clear
6:35 PM 80.6 °F 44.6 °F 28% 30.08 in 10.0 mi NNE 5.8 mph - N/A   Clear
6:55 PM 77.0 °F 44.6 °F 32% 30.09 in 10.0 mi NNE 3.5 mph - N/A   Clear
7:55 PM 71.6 °F 50.0 °F 46% 30.10 in 10.0 mi Calm Calm - N/A   Clear
8:15 PM 71.6 °F 51.8 °F 50% 30.10 in 10.0 mi North 3.5 mph - N/A   Clear
8:55 PM 64.4 °F 53.6 °F 68% 30.11 in 10.0 mi Calm Calm - N/A   Clear
9:15 PM 64.4 °F 55.4 °F 73% 30.11 in 10.0 mi Calm Calm - N/A   Clear
9:35 PM 64.4 °F 51.8 °F 64% 30.11 in 10.0 mi Calm Calm - N/A   Clear
9:55 PM 64.4 °F 51.8 °F 64% 30.12 in 10.0 mi Calm Calm - N/A   Clear
10:15 PM 62.6 °F 50.0 °F 63% 30.12 in 10.0 mi Calm Calm - N/A   Clear
10:35 PM 62.6 °F 51.8 °F 68% 30.13 in 10.0 mi Calm Calm - N/A   Clear
10:55 PM 60.8 °F 51.8 °F 72% 30.14 in 10.0 mi Calm Calm - N/A   Clear
11:15 PM 59.0 °F 51.8 °F 77% 30.14 in 10.0 mi Calm Calm - N/A   Clear
11:35 PM 60.8 °F 51.8 °F 72% 30.14 in 10.0 mi Calm Calm - N/A   Clear
11:55 PM 59.0 °F 51.8 °F 77% 30.14 in 10.0 mi Calm Calm - N/A   Clear